Regional Weather Roundup
Issued by NWS

Home | Current Version | Previous Version | Graphics & Text | Print | Product List | Glossary On
Versions: 1 2 3 4 5 6 7 8 9 10 11 12 13 14 15 16 17 18 19 20 21 22 23 24 25 26 27 28 29 30 31 32 33 34 35 36 37 38 39 40 41 42 43 44 45 46 47 48 49 50
000
ASUS43 KOAX 191110
RWRNE

WEATHER ROUNDUP FOR NEBRASKA
NATIONAL WEATHER SERVICE OMAHA NE
500 AM CST SUN NOV 19 2017

NOTES: SATELLITE DATA IS BEING USED TO AUGMENT CLOUD COVER ABOVE
       12000 FEET.
       "FAIR" INDICATES FEW OR NO CLOUDS BELOW 12,000 FEET WITH NO
       SIGNIFICANT WEATHER AND/OR OBSTRUCTIONS TO VISIBILITY.


NEZ001>004-019>022-054>056-191200-
NEBRASKA PANHANDLE

CITY           SKY/WX    TMP DP  RH WIND       PRES   REMARKS
SCOTTSBLUFF    CLOUDY    19  12  74 E5        30.15F WCI  12
ALLIANCE       CLOUDY    13  11  92 W7        30.12F WCI   3
CHADRON        CLEAR     21  16  81 SW3       30.10F
GORDON         FAIR      25  19  77 W6        30.09F WCI  18
KIMBALL        CLOUDY    23  15  74 W8        30.16F WCI  13
SIDNEY         CLOUDY    17  13  84 W8        30.17F WCI   7
$$

NEZ057>060-069>072-079>082-191200-
SOUTHWEST NEBRASKA

CITY           SKY/WX    TMP DP  RH WIND       PRES   REMARKS
NORTH PLATTE   CLOUDY    18  15  88 W6        30.19F WCI  10
IMPERIAL       CLOUDY    20  14  77 SW3       30.20F
LEXINGTON      CLEAR     24  19  81 W6        30.20F WCI  17
MCCOOK         CLEAR     23  20  88 W5        30.22F WCI  17
OGALLALA       CLOUDY    21  17  85 W10       30.18F WCI  10
$$

NEZ005>010-023>029-035>040-094-191200-
NORTH CENTRAL NEBRASKA

CITY           SKY/WX    TMP DP  RH WIND       PRES   REMARKS
VALENTINE      CLEAR     25  19  78 W9        30.10F WCI  15
AINSWORTH      CLEAR     26  21  82 SW8       30.11F WCI  17
BROKEN BOW     CLEAR     27  19  72 CALM      30.16F
O`NEILL        CLOUDY    21  20  94 SW6       30.12F WCI  13
ORD            CLEAR     20  18  92 CALM      30.16F
THEDFORD       CLEAR     25  19  79 W5        30.15F WCI  19
$$

NEZ041-046>049-061>064-073>077-083>087-191200-
SOUTH CENTRAL NEBRASKA

CITY           SKY/WX    TMP DP  RH WIND       PRES   REMARKS
GRAND ISLAND   CLEAR     27  23  85 W6        30.19F WCI  20
AURORA         CLEAR     25  22  88 CALM      30.19F
HASTINGS       CLEAR     28  19  69 SW6       30.20F WCI  22
HEBRON         CLEAR     23  21  91 CALM      30.24R
HOLDREGE       CLEAR     26  20  80 W5        30.20F WCI  20
KEARNEY        CLEAR     26  21  81 SW3       30.20F
YORK           CLEAR     25  25 100 CALM      30.20F
$$

NEZ011>018-030>034-042>045-191200-
NORTHEAST NEBRASKA

CITY           SKY/WX    TMP DP  RH WIND       PRES   REMARKS
NORFOLK        CLEAR     19  17  92 CALM      30.16F
ALBION         CLEAR     20  17  91 CALM      30.17F
BLAIR          CLEAR     28  21  76 CALM      30.18F
FREMONT        CLEAR     23  20  87 CALM      30.19F
TEKAMAH        CLEAR     22  17  81 CALM      30.19F
WAYNE          CLOUDY    20  18  91 SW6       30.16F WCI  13
$$

NEZ050>053-065>068-078-088>093-191200-
SOUTHEAST NEBRASKA

CITY           SKY/WX    TMP DP  RH WIND       PRES   REMARKS
LINCOLN        CLEAR     27  22  81 CALM      30.23F
OMAHA EPPLEY   CLEAR     26  19  74 CALM      30.21F
BEATRICE       CLEAR     22  19  87 CALM      30.24F
FALLS CITY     CLEAR     27  22  81 W5        30.25R WCI  22
NEBRASKA CITY  CLEAR     27  22  81 W6        30.22F WCI  21
PLATTSMOUTH    CLEAR     27  22  81 W6        30.21F WCI  20
$$

NEZ044-045-051>053-067-191200-
OMAHA AREA

CITY           SKY/WX    TMP DP  RH WIND       PRES   REMARKS
OMAHA EPPLEY   CLEAR     26  19  74 CALM      30.21F
BLAIR          CLEAR     28  21  76 CALM      30.18F
FREMONT        CLEAR     23  20  87 CALM      30.19F
MILLARD        CLEAR     27  22  81 CALM      30.21F
OFFUTT AFB     CLEAR     22  19  85 S3        30.20F
PLATTSMOUTH    CLEAR     27  22  81 W6        30.21F WCI  20
WAHOO          FAIR      24  20  85 S5        30.21S WCI  18
$$



USA.gov is the U.S. government's official web portal to all federal, state and local government web resources and services.